[[{"header":{"parameterUnit":"m.s-1","parameterCategory":1,"la1":30.2991,"la2":30.254,"lo1":-89.0895,"lo2":-89.0444,"dy":0.0017,"dx":0.0017,"nx":28,"ny":28,"refTime":"2024-04-26T03:00:00:Z","depth":0,"parameterNumber":2,"parameterNumberName":"U-component_of_WINDS"},"data":[0,0,0,0,0,0,0,0,0,0,0,0,0,0,0,0,0,0,0,0,0,0,0,0,0,0,0,0,0,0,0,0,0,0,0,0,0,0,0,0,0,0,0,0,0,0,0,0,0,0,0,0,0,0,0,0,0,0,-8.1636,-8.1636,0,-8.1669,-8.167,-8.167,-8.155,-8.1547,-8.1543,-8.154,-8.1569,-8.1573,-8.1577,0,0,0,0,0,0,0,0,0,0,0,0,0,-8.1465,-8.1468,-8.1636,-8.1636,-8.1637,-8.1669,-8.167,-8.167,-8.1551,-8.1546,-8.1542,-8.1538,-8.1567,-8.1572,-8.1577,0,0,0,0,0,0,0,0,0,0,0,0,0,-8.1523,-8.147,-8.1636,-8.1581,-8.1577,-8.1669,-8.167,-8.167,-8.1552,-8.1546,-8.1541,-8.1536,-8.1566,-8.1572,-8.1578,-8.1723,0,0,-8.1597,-8.1599,0,0,0,0,0,0,0,0,-8.152,-8.1529,-8.1589,-8.1585,-8.158,-8.16,-8.162,-8.1688,-8.1553,-8.1561,-8.154,-8.1533,-8.1583,-8.1588,-8.1605,-8.1724,-8.1726,-8.1597,-8.1601,-8.1604,-8.1605,0,0,0,0,0,0,0,-8.1516,-8.1527,-8.1649,-8.159,-8.1585,-8.1554,-8.1556,-8.1632,-8.1602,-8.156,-8.1551,-8.1557,-8.158,-8.16,-8.1605,-8.1726,-8.1597,-8.1603,-8.1606,-8.1609,-8.1965,-8.197,0,0,0,0,0,0,-8.1519,-8.1524,-8.1648,-8.165,-8.1536,-8.1561,-8.1564,-8.1599,-8.16,-8.1596,-8.1562,-8.1552,-8.1592,-8.1598,-8.1606,-8.1774,-8.1604,-8.1609,-8.1613,-8.1959,-8.1966,-8.1972,0,0,0,0,0,0,-8.1516,-8.1532,-8.1646,-8.1585,-8.1597,-8.157,-8.1611,-8.1603,-8.1622,-8.1602,-8.1595,-8.1588,-8.1588,-8.1597,-8.1695,-8.1773,-8.1612,-8.1618,-8.1952,-8.1961,-8.1969,-8.2113,0,0,0,0,0,0,-8.1512,-8.1531,-8.1587,-8.1587,-8.1601,-8.1736,-8.1615,-8.1607,-8.1634,-8.1621,-8.1625,-8.162,-8.1584,-8.1686,-8.1701,-8.1779,-8.1622,-8.1945,-8.1956,-8.1966,-8.2101,-8.2125,-8.2146,0,0,0,0,0,-8.1506,-8.1625,-8.159,-8.1606,-8.167,-8.1741,-8.1749,-8.1707,-8.1641,-8.1695,-8.1683,-8.162,-8.1764,-8.1697,-8.1713,-8.1794,-8.194,-8.1953,-8.1966,-8.209,-8.212,-8.2146,0,0,0,0,0,0,-8.1631,-8.1624,-8.1585,-8.1708,-8.1727,-8.1721,-8.1788,-8.174,-8.1776,-8.1762,-8.1707,-8.1709,-8.1816,-8.1815,-8.1741,-8.1934,-8.184,-8.1857,-8.193,-8.1958,-8.198,-8.1976,-8.1628,0,0,0,0,0,-8.1674,-8.1734,-8.1724,-8.1833,-8.1844,-8.1816,-8.1845,-8.1811,-8.1827,-8.1834,-8.1828,-8.1845,-8.1893,-8.1926,-8.197,-8.2102,-8.21,-8.2165,-8.2188,-8.2207,-8.222,-8.2288,-8.2317,-8.2015,-8.2015,-8.2014,0,0,-8.1761,-8.1764,-8.1805,-8.1858,-8.1868,-8.193,-8.1823,-8.1892,-8.1937,-8.1844,-8.1935,-8.1933,-8.1948,-8.2063,-8.2113,-8.2065,-8.2304,-8.2223,-8.2239,-8.2242,-8.2305,-8.2333,-8.2359,-8.2024,-8.2022,-8.2021,0,0,-8.195,-8.1961,-8.2052,-8.2066,-8.2084,-8.2064,-8.2087,-8.209,-8.2084,-8.2176,-8.2108,-8.216,-8.2246,-8.2259,-8.2277,-8.2475,-8.2418,-8.2491,-8.2608,-8.2675,-8.2699,-8.2719,-8.2787,-8.2813,-8.2506,-8.2506,-8.2507,0,-8.2055,-8.2147,-8.2104,-8.2179,-8.2204,-8.2126,-8.2217,-8.2232,-8.2263,-8.2281,-8.2229,-8.2335,-8.234,-8.2456,-8.2505,-8.2523,-8.2545,-8.2488,-8.2699,-8.272,-8.2738,-8.2802,-8.2828,-8.2515,-8.2514,-8.2513,-8.2512,0,-8.2274,-8.2339,-8.2411,-8.2444,-8.2478,-8.2561,-8.2529,-8.2568,-8.2533,-8.2519,-8.2613,-8.2618,-8.266,-8.2687,-8.2652,-8.2799,-8.2768,-8.2709,-8.2612,-8.2776,-8.2835,-8.286,-8.2527,-8.2524,-8.2521,-8.2519,0,0,-8.2538,-8.2551,-8.2577,-8.2591,-8.2608,-8.2656,-8.2736,-8.278,-8.2813,-8.2838,-8.2901,-8.2978,-8.2923,-8.2944,-8.2911,-8.2971,-8.3125,-8.2903,-8.2903,-8.2941,-8.3283,-8.3325,-8.3354,-8.309,-8.3094,-8.3098,-8.3281,0,-8.2721,-8.2858,-8.2824,-8.2959,-8.3018,-8.2947,-8.3016,-8.3033,-8.3023,-8.307,-8.3058,-8.3112,-8.3038,-8.3049,-8.3106,-8.3094,-8.3192,-8.3081,-8.3145,-8.3148,-8.3139,-8.3386,-8.343,-8.3602,-8.3304,-8.3308,-8.3311,0,-8.2952,-8.2989,-8.3131,-8.3138,-8.3161,-8.3224,-8.3261,-8.3309,-8.3326,-8.3315,-8.334,-8.3296,-8.3373,-8.3281,-8.3385,-8.331,-8.3335,-8.3334,-8.334,-8.334,-8.3236,-8.3389,-8.3656,-8.3681,-8.3348,-8.3345,-8.3342,0,-8.3127,-8.3212,-8.3307,-8.3322,-8.3334,-8.3379,-8.3386,-8.3399,-8.3428,-8.3461,-8.3479,-8.3521,-8.3543,-8.3576,-8.3543,-8.348,-8.3652,-8.3557,-8.3642,-8.3643,-8.3677,-8.3675,-8.3948,-8.3701,-8.3701,-8.37,-8.37,0,-8.3332,-8.3421,-8.3385,-8.3444,-8.3541,-8.3501,-8.3598,-8.3596,-8.3609,-8.3665,-8.3607,-8.366,-8.3617,-8.3666,-8.3642,-8.373,-8.3742,-8.3733,-8.3724,-8.3735,-8.3736,-8.3747,-8.3733,-8.3707,-8.3706,-8.3704,-8.3703,0,-8.3541,-8.3521,-8.362,-8.3625,-8.3628,-8.3699,-8.3702,-8.3755,-8.3743,-8.3814,-8.3829,-8.3809,-8.3864,-8.3837,-8.3894,-8.3877,-8.3991,-8.3969,-8.3985,-8.3978,-8.4063,-8.4054,-8.435,-8.4385,-8.412,-8.4122,-8.4124,0,-8.3671,-8.3738,-8.3751,-8.3785,-8.3796,-8.3852,-8.3882,-8.3847,-8.388,-8.3907,-8.3957,-8.4008,-8.4045,-8.4137,-8.4126,-8.417,-8.4145,-8.4246,-8.4151,-8.416,-8.4142,-8.4137,-8.4142,-8.4264,-8.4267,-8.4269,-8.4271,0,-8.3903,-8.3891,-8.3937,-8.3982,-8.402,-8.4052,-8.4079,-8.411,-8.4076,-8.4116,-8.4173,-8.4203,-8.4263,-8.4313,-8.4351,-8.4356,-8.4307,-8.4303,-8.4324,-8.4333,-8.4338,-8.4333,-8.4033,-8.4294,-8.4292,-8.429,-8.4289,-8.4288,-8.4074,-8.413,-8.4148,-8.4202,-8.4219,-8.4247,-8.4297,-8.4293,-8.434,-8.4386,-8.4363,-8.4429,-8.4446,-8.4492,-8.4505,-8.4554,-8.4514,-8.4545,-8.4553,-8.456,-8.457,-8.4335,-8.4562,-8.4561,-8.456,-8.456,-8.4559,0,-8.43,-8.4309,-8.436,-8.44,-8.4443,-8.4398,-8.4426,-8.4464,-8.4523,-8.4544,-8.4584,-8.4649,-8.4698,-8.4694,-8.4739,-8.4779,-8.4758,-8.4792,-8.4786,-8.4787,-8.4605,-8.458,-8.4808,-8.4808,-8.4808,-8.4808,-8.4808,-8.4808,-8.4422,-8.4514,-8.4504,-8.4604,-8.4612,-8.4677,-8.4697,-8.4722,-8.4738,-8.4814,-8.4856,-8.4854,-8.4864,-8.4909,-8.4952,-8.4949,-8.4967,-8.5008,-8.4997,-8.4825,-8.48,-8.4777,-8.4753,-8.5013,-8.5014,-8.5174,-8.5176,-8.5177]},{"header":{"parameterUnit":"m.s-1","parameterCategory":1,"la1":30.2991,"la2":30.254,"lo1":-89.0895,"lo2":-89.0444,"dy":0.0017,"dx":0.0017,"nx":28,"ny":28,"refTime":"2024-04-26T03:00:00:Z","depth":0,"parameterNumber":3,"parameterNumberName":"V-component_of_WINDS"},"data":[0,0,0,0,0,0,0,0,0,0,0,0,0,0,0,0,0,0,0,0,0,0,0,0,0,0,0,0,0,0,0,0,0,0,0,0,0,0,0,0,0,0,0,0,0,0,0,0,0,0,0,0,0,0,0,0,0,0,2.4529,2.4529,0,2.4537,2.4537,2.4537,2.4545,2.4545,2.4545,2.4545,2.4548,2.4548,2.4548,0,0,0,0,0,0,0,0,0,0,0,0,0,2.452,2.452,2.4529,2.4529,2.453,2.4537,2.4537,2.4537,2.4545,2.4545,2.4545,2.4545,2.4548,2.4548,2.4548,0,0,0,0,0,0,0,0,0,0,0,0,0,2.4525,2.452,2.4529,2.4534,2.4535,2.4537,2.4537,2.4537,2.4545,2.4545,2.4545,2.4545,2.4548,2.4548,2.4548,2.4544,0,0,2.4548,2.4548,0,0,0,0,0,0,0,0,2.4525,2.4526,2.4534,2.4534,2.4535,2.454,2.4535,2.4539,2.4545,2.4541,2.4545,2.4545,2.4545,2.4545,2.4546,2.4544,2.4544,2.4548,2.4548,2.4548,2.4548,0,0,0,0,0,0,0,2.4525,2.4525,2.4532,2.4534,2.4534,2.4536,2.4537,2.4535,2.4542,2.4541,2.4542,2.4543,2.4545,2.4546,2.4546,2.4544,2.4548,2.4548,2.4548,2.4548,2.4541,2.4541,0,0,0,0,0,0,2.4524,2.4525,2.4532,2.4532,2.453,2.4536,2.4537,2.4538,2.4542,2.4543,2.4543,2.4543,2.4546,2.4546,2.4546,2.4543,2.4548,2.4548,2.4548,2.4541,2.4541,2.4541,0,0,0,0,0,0,2.4524,2.4524,2.4532,2.4529,2.453,2.4536,2.4537,2.4538,2.4539,2.4543,2.4544,2.4542,2.4546,2.4546,2.4545,2.4543,2.4548,2.4548,2.4542,2.4541,2.4541,2.4535,0,0,0,0,0,0,2.4523,2.4524,2.4523,2.4529,2.453,2.4531,2.4537,2.4538,2.4539,2.454,2.4543,2.4543,2.4546,2.4545,2.4545,2.4543,2.4548,2.4542,2.4541,2.4541,2.4535,2.4535,2.4534,0,0,0,0,0,2.4523,2.452,2.4523,2.4524,2.4529,2.4531,2.4531,2.4536,2.4539,2.4538,2.4541,2.4543,2.4544,2.4545,2.4545,2.4543,2.4542,2.4542,2.4541,2.4536,2.4535,2.4534,0,0,0,0,0,0,2.4512,2.4521,2.4524,2.4523,2.4527,2.4532,2.4531,2.4535,2.4536,2.4536,2.4541,2.4542,2.454,2.4541,2.4543,2.454,2.4543,2.4543,2.4539,2.4538,2.4537,2.4537,2.4548,0,0,0,0,0,2.451,2.4512,2.4519,2.4517,2.4519,2.4525,2.4525,2.4529,2.4532,2.4533,2.4536,2.4538,2.4538,2.4538,2.4539,2.4536,2.4537,2.4535,2.4534,2.4533,2.4533,2.4532,2.4532,2.454,2.454,2.454,0,0,2.4504,2.4509,2.451,2.4515,2.4518,2.4519,2.4525,2.4526,2.4527,2.4533,2.4532,2.4535,2.4537,2.4535,2.4535,2.4536,2.4531,2.4533,2.4532,2.4532,2.4532,2.4531,2.453,2.454,2.454,2.454,0,0,2.4495,2.4499,2.4499,2.4503,2.4508,2.4512,2.4512,2.4518,2.452,2.4521,2.4525,2.4526,2.4527,2.4529,2.453,2.4525,2.4527,2.4524,2.452,2.452,2.4519,2.4519,2.4517,2.4517,2.4524,2.4524,2.4524,0,2.4487,2.4491,2.4498,2.4499,2.4502,2.4509,2.4509,2.4511,2.4516,2.4517,2.4519,2.4522,2.4524,2.4523,2.4523,2.4523,2.4523,2.4524,2.4519,2.4519,2.4518,2.4517,2.4516,2.4524,2.4524,2.4524,2.4524,0,2.4481,2.4484,2.4483,2.4489,2.4491,2.4492,2.4499,2.45,2.4504,2.4508,2.4509,2.4512,2.4514,2.4514,2.4517,2.4515,2.4516,2.4518,2.4522,2.4517,2.4516,2.4515,2.4523,2.4523,2.4523,2.4523,0,0,2.4464,2.4476,2.4476,2.448,2.4487,2.4489,2.449,2.4494,2.4495,2.4498,2.4499,2.4501,2.4504,2.4505,2.4509,2.4509,2.4505,2.4512,2.4512,2.4511,2.4504,2.4501,2.4501,2.4508,2.4508,2.4507,2.4503,0,2.4456,2.446,2.4467,2.4468,2.4471,2.4479,2.448,2.4485,2.4489,2.4491,2.4495,2.4497,2.4501,2.4502,2.4502,2.4506,2.4504,2.4506,2.4508,2.4508,2.4507,2.45,2.4497,2.4493,2.4503,2.4503,2.4503,0,2.4447,2.4453,2.4454,2.4464,2.4465,2.4466,2.4471,2.4473,2.4479,2.4482,2.4485,2.4489,2.449,2.4494,2.4496,2.4498,2.4499,2.4501,2.4501,2.4501,2.4505,2.45,2.4492,2.4491,2.4502,2.4502,2.4502,0,2.4435,2.4443,2.4445,2.4448,2.4458,2.4459,2.4463,2.4469,2.4472,2.4476,2.4478,2.4481,2.4483,2.4486,2.4491,2.4493,2.4493,2.4496,2.4495,2.4495,2.4494,2.4494,2.4486,2.4495,2.4495,2.4495,2.4495,0,2.4426,2.4427,2.444,2.4441,2.4443,2.4452,2.4452,2.4457,2.4463,2.4465,2.4472,2.4473,2.4481,2.4483,2.4488,2.4489,2.4489,2.4492,2.4493,2.4491,2.4491,2.4492,2.4492,2.4495,2.4495,2.4495,2.4495,0,2.4412,2.4421,2.4424,2.4435,2.4438,2.4438,2.4447,2.4449,2.4454,2.4457,2.4458,2.4466,2.447,2.4476,2.4481,2.4484,2.4484,2.4486,2.4483,2.4483,2.4482,2.4482,2.4474,2.4474,2.4483,2.4483,2.4483,0,2.4405,2.4407,2.4418,2.4421,2.4426,2.443,2.4433,2.4442,2.4445,2.4453,2.4454,2.4458,2.4462,2.4467,2.4473,2.4477,2.4479,2.4476,2.448,2.4478,2.4479,2.4479,2.448,2.4475,2.4475,2.4475,2.4475,0,2.4393,2.4398,2.4403,2.4411,2.4415,2.4421,2.4427,2.4428,2.4438,2.4441,2.4446,2.445,2.4456,2.446,2.4466,2.4469,2.4474,2.4474,2.4474,2.4472,2.447,2.4472,2.4481,2.4474,2.4474,2.4474,2.4474,2.4474,2.4383,2.4385,2.4394,2.44,2.4406,2.4412,2.4415,2.4422,2.4426,2.4433,2.4438,2.4443,2.4449,2.4457,2.4461,2.4464,2.4466,2.4466,2.4465,2.4465,2.4465,2.447,2.4465,2.4465,2.4465,2.4465,2.4465,0,2.4371,2.4378,2.4384,2.4393,2.4398,2.4404,2.4411,2.4415,2.4419,2.4426,2.4431,2.4437,2.4441,2.4449,2.4454,2.4455,2.4458,2.4456,2.4456,2.4457,2.4462,2.4462,2.4455,2.4455,2.4455,2.4455,2.4455,2.4455,2.4365,2.437,2.4376,2.4384,2.439,2.4396,2.44,2.4406,2.4411,2.4418,2.4423,2.4429,2.4435,2.4442,2.4447,2.4449,2.445,2.4448,2.4451,2.4456,2.4456,2.4457,2.4457,2.4449,2.4449,2.4445,2.4445,2.4445]}]]